| time (UTC) | temp F | wind direction | speed MPH | gust MPH | rain 1hr in | rain 24hr in | rain mn in | humidity % | barometer mb |
| 20260506131833 | 57 | 200 | 14.0 | 26.0 | 0.00 | 0.00 | 0.00 | 84 | 298.5 |
| 20260506124835 | 59 | 210 | 15.0 | 29.0 | 0.00 | 0.00 | 0.00 | 83 | 298.6 |
| 20260506123333 | 59 | 210 | 15.0 | 29.0 | 0.00 | 0.00 | 0.00 | 83 | 298.6 |
| 20260506121835 | 59 | 210 | 15.0 | 29.0 | 0.00 | 0.00 | 0.00 | 83 | 298.6 |
| 20260506120333 | 59 | 210 | 15.0 | 29.0 | 0.00 | 0.00 | 0.00 | 83 | 298.6 |
| 20260506114833 | 55 | 210 | 15.0 | 24.0 | 0.00 | 0.00 | 0.00 | 90 | 298.6 |
| 20260506113333 | 55 | 210 | 15.0 | 24.0 | 0.00 | 0.00 | 0.00 | 90 | 298.6 |
| 20260506111833 | 55 | 210 | 15.0 | 24.0 | 0.00 | 0.00 | 0.00 | 90 | 298.6 |
| 20260506110333 | 55 | 210 | 15.0 | 24.0 | 0.00 | 0.00 | 0.00 | 90 | 298.6 |
| 20260506104833 | 55 | 220 | 15.0 | 23.0 | 0.00 | 0.00 | 0.00 | 90 | 298.5 |
| 20260506103333 | 55 | 220 | 15.0 | 23.0 | 0.00 | 0.00 | 0.00 | 90 | 298.5 |
| 20260506101834 | 55 | 220 | 15.0 | 23.0 | 0.00 | 0.00 | 0.00 | 90 | 298.5 |
| 20260506100333 | 55 | 220 | 15.0 | 23.0 | 0.00 | 0.00 | 0.00 | 90 | 298.5 |
| 20260506094834 | 55 | 210 | 14.0 | 29.0 | 0.00 | 0.00 | 0.00 | 90 | 298.5 |
| 20260506093334 | 55 | 200 | 14.0 | 22.0 | 0.00 | 0.00 | 0.00 | 90 | 298.5 |
| 20260506091836 | 55 | 200 | 14.0 | 22.0 | 0.00 | 0.00 | 0.00 | 90 | 298.5 |
| 20260506090333 | 55 | 200 | 14.0 | 22.0 | 0.00 | 0.00 | 0.00 | 90 | 298.5 |
| 20260506084832 | 55 | 200 | 14.0 | 22.0 | 0.00 | 0.00 | 0.00 | 87 | 298.6 |
| 20260506083333 | 55 | 200 | 14.0 | 22.0 | 0.00 | 0.00 | 0.00 | 87 | 298.6 |
| 20260506081833 | 55 | 200 | 14.0 | 22.0 | 0.00 | 0.00 | 0.00 | 87 | 298.6 |
| 20260506073412 | 55 | 210 | 16.0 | 29.0 | 0.00 | 0.00 | 0.00 | 87 | 298.7 |
| 20260506073334 | 55 | 210 | 16.0 | 29.0 | 0.00 | 0.00 | 0.00 | 87 | 298.7 |
| 20260506071834 | 55 | 210 | 16.0 | 29.0 | 0.00 | 0.00 | 0.00 | 87 | 298.7 |
| 20260506070332 | 55 | 210 | 16.0 | 29.0 | 0.00 | 0.00 | 0.00 | 87 | 298.7 |
| 20260506061834 | 57 | 210 | 22.0 | 30.0 | 0.00 | 0.00 | 0.00 | 83 | 298.6 |
| 20260506060336 | 57 | 210 | 22.0 | 30.0 | 0.00 | 0.00 | 0.00 | 83 | 298.6 |
| 20260506050333 | 57 | 210 | 15.0 | 25.0 | 0.00 | 0.00 | 0.00 | 81 | 298.7 |
| 20260506044833 | 57 | 210 | 24.0 | 35.0 | 0.00 | 0.00 | 0.00 | 81 | 298.7 |
| 20260506042012 | 57 | 210 | 24.0 | 35.0 | 0.00 | 0.00 | 0.00 | 81 | 298.7 |
| 20260506041832 | 57 | 210 | 24.0 | 35.0 | 0.00 | 0.00 | 0.00 | 81 | 298.7 |
| 20260506040333 | 57 | 210 | 24.0 | 35.0 | 0.00 | 0.00 | 0.00 | 81 | 298.7 |
| 20260506034832 | 59 | 200 | 23.0 | 33.0 | 0.00 | 0.00 | 0.00 | 77 | 298.7 |
| 20260506033333 | 59 | 200 | 23.0 | 33.0 | 0.00 | 0.00 | 0.00 | 77 | 298.7 |
| 20260506031833 | 59 | 200 | 23.0 | 33.0 | 0.00 | 0.00 | 0.00 | 77 | 298.7 |
| 20260506030417 | 59 | 200 | 23.0 | 33.0 | 0.00 | 0.00 | 0.00 | 77 | 298.7 |
| 20260506030333 | 59 | 200 | 23.0 | 33.0 | 0.00 | 0.00 | 0.00 | 77 | 298.7 |
| 20260506024834 | 60 | 200 | 21.0 | 36.0 | 0.00 | 0.00 | 0.00 | 72 | 298.7 |
| 20260506023334 | 60 | 200 | 21.0 | 36.0 | 0.00 | 0.00 | 0.00 | 72 | 298.7 |
| 20260506021834 | 60 | 200 | 21.0 | 36.0 | 0.00 | 0.00 | 0.00 | 72 | 298.7 |
| 20260506020333 | 60 | 200 | 21.0 | 36.0 | 0.00 | 0.00 | 0.00 | 72 | 298.7 |
| 20260506014833 | 60 | 210 | 20.0 | 33.0 | 0.00 | 0.00 | 0.00 | 70 | 298.5 |
| 20260506013333 | 60 | 210 | 20.0 | 33.0 | 0.00 | 0.00 | 0.00 | 70 | 298.5 |
| 20260506011833 | 60 | 210 | 20.0 | 33.0 | 0.00 | 0.00 | 0.00 | 70 | 298.5 |
| 20260506010335 | 60 | 210 | 20.0 | 33.0 | 0.00 | 0.00 | 0.00 | 70 | 298.5 |
| 20260506004832 | 62 | 200 | 20.0 | 35.0 | 0.00 | 0.00 | 0.00 | 67 | 298.3 |
| 20260506003333 | 62 | 200 | 20.0 | 35.0 | 0.00 | 0.00 | 0.00 | 67 | 298.3 |
| 20260506000333 | 62 | 200 | 20.0 | 35.0 | 0.00 | 0.00 | 0.00 | 67 | 298.3 |
| 20260505234834 | 62 | 200 | 24.0 | 37.0 | 0.00 | 0.00 | 0.00 | 65 | 298.1 |
| 20260505233333 | 62 | 200 | 24.0 | 37.0 | 0.00 | 0.00 | 0.00 | 65 | 298.1 |
| 20260505231833 | 62 | 200 | 24.0 | 37.0 | 0.00 | 0.00 | 0.00 | 65 | 298.1 |
| 20260505230440 | 62 | 200 | 24.0 | 37.0 | 0.00 | 0.00 | 0.00 | 65 | 298.1 |
| 20260505230333 | 62 | 200 | 24.0 | 37.0 | 0.00 | 0.00 | 0.00 | 65 | 298.1 |
| 20260505224833 | 64 | 210 | 26.0 | 45.0 | 0.00 | 0.00 | 0.00 | 63 | 298.0 |
| 20260505223333 | 64 | 210 | 26.0 | 45.0 | 0.00 | 0.00 | 0.00 | 63 | 298.0 |
| 20260505221834 | 64 | 210 | 26.0 | 45.0 | 0.00 | 0.00 | 0.00 | 63 | 298.0 |
| 20260505220333 | 64 | 210 | 26.0 | 45.0 | 0.00 | 0.00 | 0.00 | 63 | 298.0 |
| 20260505213334 | 64 | 200 | 23.0 | 36.0 | 0.00 | 0.00 | 0.00 | 61 | 297.9 |
| 20260505211834 | 64 | 200 | 23.0 | 36.0 | 0.00 | 0.00 | 0.00 | 61 | 297.9 |
| 20260505210333 | 64 | 200 | 23.0 | 36.0 | 0.00 | 0.00 | 0.00 | 61 | 297.9 |
| 20260505204833 | 64 | 190 | 23.0 | 32.0 | 0.00 | 0.00 | 0.00 | 63 | 298.0 |
| 20260505203426 | 64 | 190 | 23.0 | 32.0 | 0.00 | 0.00 | 0.00 | 63 | 298.0 |
| 20260505203334 | 64 | 190 | 23.0 | 32.0 | 0.00 | 0.00 | 0.00 | 63 | 298.0 |
| 20260505201833 | 64 | 190 | 23.0 | 32.0 | 0.00 | 0.00 | 0.00 | 63 | 298.0 |
| 20260505200334 | 64 | 190 | 23.0 | 32.0 | 0.00 | 0.00 | 0.00 | 63 | 298.0 |
| 20260505194834 | 64 | 190 | 15.0 | 23.0 | 0.00 | 0.00 | 0.00 | 65 | 298.4 |
| 20260505193334 | 64 | 190 | 15.0 | 23.0 | 0.00 | 0.00 | 0.00 | 65 | 298.4 |
| 20260505191833 | 64 | 190 | 15.0 | 23.0 | 0.00 | 0.00 | 0.00 | 65 | 298.4 |
| 20260505190333 | 64 | 190 | 15.0 | 23.0 | 0.00 | 0.00 | 0.00 | 65 | 298.4 |
| 20260505184835 | 64 | 190 | 15.0 | 0.0 | 0.00 | 0.00 | 0.00 | 68 | 298.5 |
| 20260505183333 | 64 | 190 | 15.0 | 0.0 | 0.00 | 0.00 | 0.00 | 68 | 298.5 |
| 20260505181941 | 64 | 190 | 15.0 | 0.0 | 0.00 | 0.00 | 0.00 | 68 | 298.5 |
| 20260505181833 | 64 | 190 | 15.0 | 0.0 | 0.00 | 0.00 | 0.00 | 68 | 298.5 |
| 20260505180334 | 64 | 190 | 15.0 | 0.0 | 0.00 | 0.00 | 0.00 | 68 | 298.5 |
| 20260505174834 | 64 | 190 | 15.0 | 0.0 | 0.00 | 0.00 | 0.00 | 67 | 298.6 |
| 20260505173332 | 64 | 190 | 15.0 | 0.0 | 0.00 | 0.00 | 0.00 | 67 | 298.6 |
| 20260505171834 | 64 | 190 | 15.0 | 0.0 | 0.00 | 0.00 | 0.00 | 67 | 298.6 |
| 20260505170419 | 64 | 190 | 15.0 | 0.0 | 0.00 | 0.00 | 0.00 | 67 | 298.6 |
| 20260505170333 | 64 | 190 | 15.0 | 0.0 | 0.00 | 0.00 | 0.00 | 67 | 298.6 |
| 20260505164904 | 66 | 180 | 12.0 | 0.0 | 0.00 | 0.00 | 0.00 | 65 | 298.8 |
| 20260505164833 | 66 | 180 | 12.0 | 0.0 | 0.00 | 0.00 | 0.00 | 65 | 298.8 |
| 20260505163334 | 66 | 180 | 12.0 | 0.0 | 0.00 | 0.00 | 0.00 | 65 | 298.8 |
| 20260505161906 | 66 | 180 | 12.0 | 0.0 | 0.00 | 0.00 | 0.00 | 65 | 298.8 |
| 20260505161833 | 66 | 180 | 12.0 | 0.0 | 0.00 | 0.00 | 0.00 | 65 | 298.8 |
| 20260505160430 | 66 | 180 | 12.0 | 0.0 | 0.00 | 0.00 | 0.00 | 65 | 298.8 |
| 20260505160333 | 66 | 180 | 12.0 | 0.0 | 0.00 | 0.00 | 0.00 | 65 | 298.8 |
| 20260505153333 | 64 | 180 | 10.0 | 0.0 | 0.00 | 0.00 | 0.00 | 70 | 298.9 |
| 20260505151834 | 64 | 180 | 10.0 | 0.0 | 0.00 | 0.00 | 0.00 | 70 | 298.9 |
| 20260505150332 | 64 | 180 | 10.0 | 0.0 | 0.00 | 0.00 | 0.00 | 70 | 298.9 |
| 20260505140411 | 62 | 190 | 12.0 | 0.0 | 0.00 | 0.00 | 0.00 | 70 | 298.8 |
| 20260505140333 | 62 | 190 | 12.0 | 0.0 | 0.00 | 0.00 | 0.00 | 70 | 298.8 |